Regional Weather Roundup
Issued by NWS

Home | Current Version | Previous Version | Graphics & Text | Print | Product List | Glossary On
Versions: 1 2 3 4 5 6 7 8 9 10 11 12 13 14 15 16 17 18 19 20 21 22 23 24 25 26 27 28 29 30 31 32 33 34 35 36 37 38 39 40 41 42 43 44 45 46 47 48 49 50
000
ASUS43 KMPX 190601
RWRMN
WEATHER ROUNDUP FOR MINNESOTA
NATIONAL WEATHER SERVICE TWIN CITIES/CHANHASSEN MN
100 AM CDT THU OCT 19 2017


NOTE: "FAIR" INDICATES FEW OR NO CLOUDS BELOW 12,000 FEET WITH NO
SIGNIFICANT WEATHER AND/OR OBSTRUCTIONS TO VISIBILITY. N/A MEANS
CURRENT SKY AND/OR WEATHER CONDITIONS ARE NOT AVAILABLE.

MNZ060>063-068>070-190700-
   Twin Cities Metro

CITY           SKY/WX    TMP DP  RH WIND       PRES   REMARKS
TWIN CITIES    CLOUDY    52  30  43 W6        30.02S
6HR MIN TEMP:  52; 6HR MAX TEMP:  61;

ST PAUL        CLOUDY    50  29  44 CALM      30.02S
CRYSTAL        CLOUDY    50  27  40 W7        30.00S HAZE
BLAINE         CLOUDY    52  30  43 W5        30.01S
LAKEVILLE      PTCLDY    45  32  61 CALM      30.02F
EDEN PRAIRIE   CLOUDY    51  29  42 W7        30.01F
6HR MIN TEMP:  50; 6HR MAX TEMP:  61;

SOUTH ST PAUL  CLOUDY    49  30  47 W3        30.01S
LAKE ELMO      FAIR      46  30  53 SW6       30.02S
$$
MNZ001>005-007-008-013>017-022>024-027-028-190700-
   Northwest Minnesota

CITY           SKY/WX    TMP DP  RH WIND       PRES   REMARKS
BEMIDJI        CLOUDY    44  22  42 W10       29.90R
HALLOCK        PTCLDY    41  16  36 W8        29.84R
ROSEAU         CLEAR     46  19  34 W13G22    29.81R
WARROAD        CLEAR     45  21  39 W16       29.80R
CROOKSTON      CLOUDY    37  21  52 S9        29.91R
FOSSTON        CLOUDY    39  19  45 SW9       29.92R
DETROIT LAKES  CLOUDY    46  27  46 W7        29.96R
MOORHEAD       CLOUDY    43  27  52 SW6       29.96S
PARK RAPIDS    CLOUDY    38  27  64 SW6       29.93S
MAHNOMEN       FAIR      42  24  48 W8        29.93R
$$
MNZ006-009>011-018-025>026-190700-
   North Central Minnesota

CITY           SKY/WX    TMP DP  RH WIND       PRES   REMARKS
BAUDETTE       CLOUDY    49  17  28 W14G31    29.79R
FLAG ISLAND    CLOUDY    48  16  27 W21G30    29.73R
INTL FALLS     CLOUDY    47  16  29 W10G18    29.77R
6HR MIN TEMP:  47; 6HR MAX TEMP:  53;

WASKISH        CLEAR     48  32  53 W18       29.84R
BIG FORK       CLOUDY    52  19  28 W9G18     29.85R
LONGVILLE      CLOUDY    46  25  42 SW8       29.91S
GRAND RAPIDS   CLOUDY    49  23  36 W8        29.90S
CRANE LAKE     CLOUDY    48  10  21 W8G17     29.79S
ORR            CLOUDY    48  14  25 W15G23    29.78S
COOK           CLOUDY    48  19  32 W12       29.82S
WALKER         FAIR      47  21  36 W7        29.91R
$$
MNZ012-019>021-037-190700-
   Northeast Minnesota

CITY           SKY/WX    TMP DP  RH WIND       PRES   REMARKS
DULUTH         CLOUDY    45  21  38 W13       29.87S
6HR MIN TEMP:  45; 6HR MAX TEMP:  54;

ELY            CLEAR     48  16  27 W14G20    29.79S
HIBBING        CLOUDY    46  20  35 W6        29.86R
EVELETH        CLOUDY    45   7  21 W9        29.86S
DULUTH HARBOR  CLOUDY    52  21  30 SW15      29.90R
TWO HARBORS    CLOUDY    48  25  40 SW8       29.84S
GRAND MARAIS     N/A     44  32  62 W6        29.76R
G MARAIS ARPRT CLEAR     45  12  26 SW6G18    29.75S
$$
MNZ029>031-032-039>041-046>048-054>057-064-190700-
   West Central Minnesota

CITY           SKY/WX    TMP DP  RH WIND       PRES   REMARKS
FERGUS FALLS   CLOUDY    39  30  70 S5        29.99S
WHEATON        CLOUDY    45  28  53 SW6       30.00S
MORRIS         CLOUDY    43  34  70 W8        29.99F
ALEXANDRIA     CLOUDY    43  32  65 SW8       30.00S
ELBOW LAKE     FAIR      36  32  84 CALM      29.99S
WADENA         CLOUDY    39  27  60 SW6       29.96S
GLENWOOD       CLOUDY    43  34  70 W9        30.01S
APPLETON       CLOUDY    41  32  70 CALM      30.01S
BENSON         CLOUDY    41  30  65 CALM      30.03S
ORTONVILLE     CLOUDY    45  30  57 CALM      30.00F
MADISON        CLOUDY    45  34  65 SW3       30.02S
WILLMAR        FAIR      45  34  65 CALM      30.04S
$$
MNZ033>034-036-042>043-049>051-058-059-190700-
   Central Minnesota

CITY           SKY/WX    TMP DP  RH WIND       PRES   REMARKS
ST CLOUD       CLOUDY    44  32  62 SW8       30.00S
6HR MIN TEMP:  43; 6HR MAX TEMP:  56;

SAUK CENTRE    FAIR      43  32  65 W3        30.00R
PAYNESVILLE    CLOUDY    42  33  70 W6        30.02S
AITKIN         CLOUDY    46  23  39 SW6       29.92S
PINE RIVER     CLOUDY    45  25  45 W3        29.97R
BRAINERD       CLOUDY    47  24  40 W10       29.96R
STAPLES        CLOUDY    45  25  45 SW7       29.96S
LONG PRAIRIE   FAIR      43  30  61 S6        30.00R
LITTLE FALLS   CLOUDY    43  21  42 CALM      29.99S
LITCHFIELD     CLOUDY    48  34  57 SW3       30.03R
BUFFALO        CLOUDY    46  31  55 CALM      30.03R
MAPLE LAKE     CLOUDY    47  33  57 W5        30.02S
HUTCHINSON     PTCLDY    44  32  64 SW5       30.04R
$$
MNZ037-044-045-052-053-190700-
   East Central Minnesota

CITY           SKY/WX    TMP DP  RH WIND       PRES   REMARKS
PRINCETON      CLOUDY    46  30  53 SW5       30.00S
MORA           CLOUDY    45  30  57 W6        29.99S
CAMBRIDGE      CLOUDY    48  32  53 SW5       30.00R
RUSH CITY      CLOUDY    50  26  40 SW3       29.98S
MOOSE LAKE     CLOUDY    46  23  39 SW5       29.91S
HINCKLEY       FAIR      43  30  61 W7        29.96S
CLOQUET        CLOUDY    48  16  27 W8        29.90S
MCGREGOR       CLOUDY    46  23  39 SW5       29.93R
$$
MNZ071>073-080-081-089-090-097-098-190700-
   Southwest Minnesota

CITY           SKY/WX    TMP DP  RH WIND       PRES   REMARKS
MONTEVIDEO     CLOUDY    43  27  52 CALM      30.03S
GRANITE FALLS  CLOUDY    41  34  76 SW5       30.05R
CANBY          PTCLDY    49  28  43 SW5       30.03F
MARSHALL       CLOUDY    47  31  53 W9        30.04F
REDWOOD FALLS  CLOUDY    45  30  55 CALM      30.04S
OLIVIA         CLOUDY    41  32  70 SW3       30.02F
PIPESTONE      CLOUDY    43  28  56 CALM      30.05F
WORTHINGTON    CLOUDY    41  34  76 CALM      30.08R
JACKSON        CLOUDY    43  32  65 NW3       30.07S
TRACY          CLOUDY    49  32  52 W8        30.04F
SLAYTON        CLOUDY    40  30  68 W5        30.06F
$$
MNZ065>067-074>077-082>085-091>093-190700-
   South Central Minnesota

CITY           SKY/WX    TMP DP  RH WIND       PRES   REMARKS
MANKATO        CLOUDY    48  29  47 CALM      30.04F
NEW ULM        CLOUDY    39  30  70 W6        30.04F
ST JAMES       CLOUDY    43  34  70 CALM      30.06S
FAIRMONT       CLOUDY    46  31  55 CALM      30.06R
GLENCOE        CLOUDY    44  33  67 SW3       30.02S
FARIBAULT      CLOUDY    43  32  65 CALM      30.04S
OWATONNA       CLOUDY    43  32  65 CALM      30.04S
WASECA         CLOUDY    39  34  81 SW3       30.06R
$$
MNZ078>079-086>088-094>096-190700-
   Southeast Minnesota

CITY           SKY/WX    TMP DP  RH WIND       PRES   REMARKS
ROCHESTER      CLOUDY    47  30  51 NW8       30.05R
6HR MIN TEMP:  47; 6HR MAX TEMP:  58;

RED WING       CLOUDY    43  30  61 CALM      30.01S
STANTON        CLOUDY    44  32  62 CALM      30.02S
DODGE CENTER   PTCLDY    45  28  53 W3        30.04S
WINONA         CLOUDY    54  32  43 NW5       30.03R
AUSTIN         PTCLDY    48  28  46 CALM      30.05R
PRESTON        PTCLDY    46  29  51 NW7       30.04S
$$
ABBREVIATIONS USED IN REMARKS
   TC - TEMPERATURES IN CELSIUS
  WCI - WIND CHILL INDEX
   HX - HEAT INDEX
  VSB - VISIBILITY
$$



USA.gov is the U.S. government's official web portal to all federal, state and local government web resources and services.